Regional Weather Roundup
Issued by NWS Cleveland, OH

Home | Current Version | Previous Version | Text Only | Print | Product List | Glossary Off
Versions: 1 2 3 4 5 6 7 8 9 10 11 12 13 14 15 16 17 18 19 20 21 22 23 24 25 26 27 28 29 30 31 32 33 34 35 36 37 38 39 40 41 42 43 44 45 46 47 48 49 50

010
ASUS41 KCLE 241502
RWRCLE
OHIO REGIONAL WEATHER ROUNDUP
NATIONAL WEATHER SERVICE CLEVELAND, OH
1100 AM EDT SUN SEP 24 2017

NOTE: "FAIR" INDICATES FEW OR NO CLOUDS BELOW 12,000 FEET WITH NO
SIGNIFICANT WEATHER AND/OR OBSTRUCTIONS TO VISIBILITY.

OHZ001>008-015>018-024>027-034-035-043-044-241600-
   NORTHWEST OHIO

CITY           SKY/WX    TMP DP  RH WIND       PRES   REMARKS
DEFIANCE       SUNNY     78  62  57 E5        30.15F
FINDLAY        SUNNY     81  62  52 SE6       30.16S
TOLEDO EXPRESS SUNNY     81  66  60 SE3       30.16F
TOLEDO EXEC    SUNNY     82  64  54 VRB3      30.17S
LIMA           SUNNY     83  56  39 VRB7      30.15F
$$

OHZ009>014-019>023-028>033-038-089-241600-
   NORTHEAST OHIO

CITY           SKY/WX    TMP DP  RH WIND       PRES   REMARKS
CLE-HOPKINS    SUNNY     87  64  46 VRB3      30.19F
CLE-LAKEFRONT  SUNNY     84  64  50 VRB6      30.16F
CUY CO. ARPT   SUNNY     86  66  51 SE10      30.19F
LORAIN-ELYRIA  SUNNY     82  61  48 CALM      30.18F
ASHTABULA      SUNNY     83  66  56 E6        30.20F
AKRON-CANTON   SUNNY     83  63  50 E5        30.20S
WOOSTER        SUNNY     81  64  56 SE7       30.20S
MANSFIELD      SUNNY     79  63  57 E7        30.20S
YOUNGSTOWN     SUNNY     80  66  62 E8        30.20F
$$

OHZ042-051>053-060>062-070>072-077>081-241600-
  SOUTHWEST OHIO

CITY           SKY/WX    TMP DP  RH WIND       PRES   REMARKS
CINC-COVINGTON SUNNY     77  64  64 SE5       30.13R
CINC-LUNKEN    SUNNY     76  66  71 CALM      30.12F
HAMILTON       SUNNY     78  63  59 CALM      30.14S
DAYTON         SUNNY     76  60  57 E5        30.16S
WRIGHT-PAT AFB SUNNY     78  62  58 E3        30.14S
DAYTON GENERAL SUNNY     79  61  53 VRB5      30.14R
WILMINGTON     SUNNY     78  64  61 E6        30.14F
$$

OHZ036-037-039>041-045>050-054>059-063>069-073>076-082>088-241600-
  CENTRAL AND SOUTHEAST OHIO

CITY           SKY/WX    TMP DP  RH WIND       PRES   REMARKS
COLUMBUS       MOSUNNY   81  59  47 SE3       30.15F
OSU AIRPORT    SUNNY     80  60  50 SE6       30.15F
BOLTON FIELD   SUNNY     77  61  57 SE3       30.16F
RICKENBACK AFB NOT AVBL
NEWARK         SUNNY     78  61  55 NW3       30.16F
MARION         SUNNY     84  56  38 SE8       30.17S
LANCASTER      SUNNY     77  63  61 E7        30.16F
ZANESVILLE     SUNNY     79  61  53 CALM      30.17F
NEW PHILLY     NOT AVBL
$$




USA.gov is the U.S. government's official web portal to all federal, state and local government web resources and services.